DF9PM-13 Weather Reports


Display with metric or nautical units.
time (UTC)temp
F
wind
direction
speed
MPH
gust
MPH
rain 1hr
in
rain 24hr
in
rain mn
in
humidity
%
barometer
mb
20260507040625 51 300 8.0 0.0 0.00 0.00 0.00 10 1011.6
20260507040125 51 310 6.0 0.0 0.00 0.00 0.00 10 1011.6
20260507035625 51 310 6.0 0.0 0.00 0.00 0.00 10 1011.5
20260507035125 51 310 6.0 0.0 0.00 0.00 0.00 10 1011.5
20260507034625 51 300 5.0 0.0 0.00 0.00 0.00 10 1011.5
20260507034125 51 300 5.0 0.0 0.00 0.00 0.00 10 1011.5
20260507033625 51 300 5.0 0.0 0.00 0.00 0.00 10 1011.4
20260507033125 51 300 5.0 0.0 0.00 0.00 0.00 10 1011.4
20260507032625 51 300 5.0 0.0 0.00 0.00 0.00 10 1011.3
20260507032125 51 300 5.0 0.0 0.00 0.00 0.00 10 1011.3
20260507031625 51 300 5.0 0.0 0.00 0.00 0.00 10 1011.3
20260507031125 51 310 5.0 0.0 0.00 0.00 0.00 10 1011.3
20260507030625 51 310 5.0 0.0 0.00 0.00 0.00 10 1011.2
20260507030125 51 310 5.0 0.0 0.00 0.00 0.00 10 1011.2
20260507025625 52 310 5.0 0.0 0.00 0.00 0.00 10 1011.2
20260507025125 51 310 5.0 0.0 0.00 0.00 0.00 10 1011.2
20260507024625 51 310 5.0 0.0 0.00 0.00 0.00 10 1011.2
20260507024124 52 310 5.0 0.0 0.00 0.00 0.00 10 1011.2
20260507023625 52 300 6.0 0.0 0.00 0.00 0.00 10 1011.2
20260507023124 52 300 6.0 0.0 0.00 0.00 0.00 10 1011.2
20260507022624 52 300 6.0 0.0 0.00 0.00 0.00 10 1011.2
20260507022124 52 300 6.0 0.0 0.00 0.00 0.00 10 1011.1
20260507021624 51 280 6.0 0.0 0.00 0.00 0.00 10 1011.0
20260507021124 51 280 6.0 0.0 0.00 0.00 0.00 10 1011.0
20260507020624 51 280 6.0 0.0 0.00 0.00 0.00 10 1011.0
20260507020124 51 280 6.0 0.0 0.00 0.00 0.00 10 1010.9
20260507015624 52 280 6.0 0.0 0.00 0.00 0.00 10 1010.9
20260507015124 52 280 6.0 0.0 0.00 0.00 0.00 10 1010.8
20260507014624 52 280 6.0 0.0 0.00 0.00 0.00 10 1010.8
20260507014124 51 280 6.0 0.0 0.00 0.00 0.00 10 1010.7
20260507013624 51 280 6.0 0.0 0.00 0.00 0.00 10 1010.7
20260507013124 51 280 5.0 0.0 0.00 0.00 0.00 10 1010.6
20260507012624 52 280 5.0 0.0 0.00 0.00 0.00 10 1010.6
20260507012123 52 280 5.0 0.0 0.00 0.00 0.00 10 1010.6
20260507011623 51 280 5.0 0.0 0.00 0.00 0.00 10 1010.6
20260507011124 51 280 5.0 0.0 0.00 0.00 0.00 10 1010.6
20260507010623 51 280 5.0 0.0 0.00 0.00 0.00 10 1010.5
20260507010123 51 300 5.0 0.0 0.00 0.00 0.00 10 1010.5
20260507005623 51 300 5.0 0.0 0.00 0.00 0.00 10 1010.5
20260507005123 51 270 5.0 0.0 0.00 0.00 0.00 10 1010.4
20260507004623 51 270 5.0 0.0 0.00 0.00 0.00 10 1010.5
20260507004123 51 270 5.0 0.0 0.00 0.00 0.00 10 1010.5
20260507003623 51 260 5.0 0.0 0.00 0.00 0.00 10 1010.5
20260507003123 51 260 5.0 0.0 0.00 0.00 0.00 10 1010.5
20260507002623 51 260 5.0 0.0 0.00 0.00 0.00 10 1010.5
20260507002123 51 260 5.0 0.0 0.00 0.00 0.00 10 1010.5
20260507001623 51 260 5.0 0.0 0.00 0.00 0.00 10 1010.5
20260507001123 52 260 5.0 0.0 0.00 0.00 0.00 10 1010.5
20260507000623 51 270 5.0 0.0 0.00 0.00 0.00 10 1010.4
20260507000123 52 270 5.0 0.0 0.00 0.00 0.00 10 1010.4
20260506235623 52 270 5.0 0.0 0.00 0.00 0.00 10 1010.4
20260506235123 52 270 5.0 0.0 0.00 0.00 0.00 10 1010.4
20260506234622 51 270 5.0 0.0 0.00 0.00 0.00 10 1010.4
20260506234122 51 280 4.0 0.0 0.00 0.00 0.00 10 1010.4
20260506233622 51 280 4.0 0.0 0.00 0.00 0.00 10 1010.3
20260506233122 51 280 4.0 0.0 0.00 0.00 0.00 10 1010.3
20260506232622 51 280 4.0 0.0 0.00 0.00 0.00 10 1010.3
20260506232122 51 280 4.0 0.0 0.00 0.00 0.00 10 1010.3
20260506231622 51 290 4.0 0.0 0.00 0.00 0.00 10 1010.3
20260506231122 52 290 4.0 0.0 0.00 0.00 0.00 10 1010.2
20260506230622 51 290 4.0 0.0 0.00 0.00 0.00 10 1010.2
20260506230122 51 300 6.0 0.0 0.00 0.00 0.00 10 1010.1
20260506225622 51 300 6.0 0.0 0.00 0.00 0.00 10 1010.1
20260506225122 51 300 6.0 0.0 0.00 0.00 0.00 10 1010.1
20260506224622 52 300 6.0 0.0 0.00 0.00 0.00 10 1010.0
20260506224122 52 300 6.0 0.0 0.00 0.00 0.00 10 1010.0
20260506223621 52 300 6.0 0.0 0.00 0.00 0.00 10 1009.9
20260506223121 52 300 6.0 0.0 0.00 0.00 0.00 10 1009.8
20260506222621 51 300 6.0 0.0 0.00 0.00 0.00 10 1009.9
20260506222121 51 300 6.0 0.0 0.00 0.00 0.00 10 1009.8
20260506221621 51 300 6.0 0.0 0.00 0.00 0.00 10 1009.8
20260506221121 52 300 6.0 0.0 0.00 0.00 0.00 10 1009.8
20260506220621 51 310 6.0 0.0 0.00 0.00 0.00 10 1009.9
20260506220121 52 310 6.0 0.0 0.00 0.00 0.00 10 1009.8
20260506215621 52 310 6.0 0.0 0.00 0.00 0.00 10 1009.8
20260506215120 51 310 6.0 0.0 0.00 0.00 0.00 10 1009.8
20260506214620 52 310 6.0 0.0 0.00 0.00 0.00 10 1009.7
20260506214120 52 270 5.0 0.0 0.00 0.00 0.00 10 1009.8
20260506213620 361 270 5.0 0.0 0.00 0.00 0.00 10 1298.3
20260506213120 52 270 5.0 0.0 0.00 0.00 0.00 10 1009.8
20260506212620 361 270 5.0 0.0 0.00 0.00 0.00 10 1298.0
20260506212120 361 270 5.0 0.0 0.00 0.00 0.00 10 1297.2
20260506211620 361 270 5.0 0.0 0.00 0.00 0.00 10 -186.4
20260506211120 361 270 5.0 0.0 0.00 0.00 0.00 10 -186.4
20260506210620 361 310 6.0 0.0 0.00 0.00 0.00 10 -186.4
20260506210120 361 310 6.0 0.0 0.00 0.00 0.00 10 -186.4
20260506205620 52 300 6.0 0.0 0.00 0.00 0.00 10 1009.5
20260506205119 361 300 6.0 0.0 0.00 0.00 0.00 10 1009.5
20260506204619 361 300 6.0 0.0 0.00 0.00 0.00 10 -186.4
20260506204120 361 320 5.0 0.0 0.00 0.00 0.00 10 -186.4
20260506203619 361 320 5.0 0.0 0.00 0.00 0.00 10 -186.4
20260506203119 361 300 4.0 0.0 0.00 0.00 0.00 10 1296.7
20260506202619 361 300 4.0 0.0 0.00 0.00 0.00 10 1296.7
20260506202119 361 300 4.0 0.0 0.00 0.00 0.00 10 1296.3
20260506201619 361 300 4.0 0.0 0.00 0.00 0.00 10 -186.4
20260506201119 361 300 4.0 0.0 0.00 0.00 0.00 10 1295.7
20260506200619 53 300 4.0 0.0 0.00 0.00 0.00 10 1009.0
20260506200119 361 340 4.0 0.0 0.00 0.00 0.00 10 1009.0
20260506195619 361 340 4.0 0.0 0.00 0.00 0.00 10 1295.4
20260506195119 361 340 4.0 0.0 0.00 0.00 0.00 10 1295.3
20260506194619 361 340 4.0 0.0 0.00 0.00 0.00 10 -186.4
20260506194119 361 340 4.0 0.0 0.00 0.00 0.00 10 -186.4
20260506193619 361 290 4.0 0.0 0.00 0.00 0.00 10 1295.2
20260506193119 361 290 4.0 0.0 0.00 0.00 0.00 10 -186.4
20260506192619 361 290 4.0 0.0 0.00 0.00 0.00 10 1294.5
20260506192119 361 290 4.0 0.0 0.00 0.00 0.00 10 -186.4
20260506191618 361 310 6.0 0.0 0.00 0.00 0.00 10 -186.4
20260506191119 361 310 6.0 0.0 0.00 0.00 0.00 10 1293.6
20260506190618 361 310 7.0 0.0 0.00 0.00 0.00 10 1293.5
20260506190118 361 310 7.0 0.0 0.00 0.00 0.00 10 -186.4
20260506185618 361 310 7.0 0.0 0.00 0.00 0.00 10 1293.7
20260506185118 361 310 7.0 0.0 0.00 0.00 0.00 10 1293.0
20260506184619 361 310 7.0 0.0 0.00 0.00 0.00 10 1291.5
20260506184118 361 310 7.0 0.0 0.00 0.00 0.00 10 -186.4
20260506183618 361 310 7.0 0.0 0.00 0.00 0.00 10 1291.8
20260506183118 361 310 7.0 0.0 0.00 0.00 0.00 10 -186.4
20260506182618 55 310 7.0 0.0 0.00 0.00 0.00 10 1007.6
20260506182118 361 310 6.0 0.0 0.00 0.00 0.00 10 -186.4
20260506181618 361 310 6.0 0.0 0.00 0.00 0.00 10 1007.6
20260506181118 361 300 5.0 0.0 0.00 0.00 0.00 10 1007.5
20260506180618 56 300 5.0 0.0 0.00 0.00 0.00 10 1007.5
20260506180118 57 300 5.0 0.0 0.00 0.00 0.00 10 1007.3
20260506175618 56 320 6.0 0.0 0.00 0.00 0.00 10 1007.2
20260506175118 56 320 6.0 0.0 0.00 0.00 0.00 10 1007.2
20260506174617 56 320 6.0 0.0 0.00 0.00 0.00 10 1007.3
20260506174118 56 320 6.0 0.0 0.00 0.00 0.00 10 1007.2
20260506173617 56 320 8.0 0.0 0.00 0.00 0.00 10 1007.2
20260506173117 56 320 8.0 0.0 0.00 0.00 0.00 10 1007.1
20260506172617 57 330 8.0 0.0 0.00 0.00 0.00 10 1007.1
20260506172117 57 330 8.0 0.0 0.00 0.00 0.00 10 1007.0
20260506171617 56 330 8.0 0.0 0.00 0.00 0.00 10 1007.0
20260506171117 56 310 6.0 0.0 0.00 0.00 0.00 10 1007.0
20260506170617 57 310 6.0 0.0 0.00 0.00 0.00 10 1007.0
20260506170117 56 310 6.0 0.0 0.00 0.00 0.00 10 1007.0
20260506165617 56 310 6.0 0.0 0.00 0.00 0.00 10 1007.0
20260506165117 57 310 6.0 0.0 0.00 0.00 0.00 10 1006.8
20260506164617 57 310 6.0 0.0 0.00 0.00 0.00 10 1006.8
20260506164117 57 280 6.0 0.0 0.00 0.00 0.00 10 1006.8
20260506163617 58 280 6.0 0.0 0.00 0.00 0.00 10 1006.8
20260506163117 57 280 6.0 0.0 0.00 0.00 0.00 10 1006.8
20260506162617 57 280 6.0 0.0 0.00 0.00 0.00 10 1006.8
20260506162116 57 280 6.0 0.0 0.00 0.00 0.00 10 1006.7
20260506161616 57 280 6.0 0.0 0.00 0.00 0.00 10 1006.7
20260506161116 58 270 9.0 0.0 0.00 0.00 0.00 10 1006.7
20260506160616 59 270 9.0 0.0 0.00 0.00 0.00 10 1006.6
20260506160116 58 270 9.0 0.0 0.00 0.00 0.00 10 1006.7
20260506155617 58 270 9.0 0.0 0.00 0.00 0.00 10 1006.6
20260506155116 59 270 9.0 0.0 0.00 0.00 0.00 10 1006.5
20260506154616 59 270 9.0 0.0 0.00 0.00 0.00 10 1006.5
20260506154116 60 270 9.0 0.0 0.00 0.00 0.00 10 1006.5
20260506153616 60 280 9.0 17.0 0.00 0.00 0.00 10 1006.4
20260506153116 60 280 9.0 17.0 0.00 0.00 0.00 10 1006.4
20260506152616 60 280 9.0 17.0 0.00 0.00 0.00 10 1006.4
20260506152116 60 280 9.0 17.0 0.00 0.00 0.00 10 1006.4
20260506151616 60 280 9.0 17.0 0.00 0.00 0.00 10 1006.4
20260506151116 60 280 9.0 17.0 0.00 0.00 0.00 10 1006.4
20260506150616 60 260 9.0 12.0 0.00 0.00 0.00 10 1006.3
20260506150116 59 260 9.0 12.0 0.00 0.00 0.00 10 1006.3
20260506145615 59 260 9.0 12.0 0.00 0.00 0.00 10 1006.3
20260506145115 60 250 7.0 0.0 0.00 0.00 0.00 10 1006.2
20260506144615 59 250 7.0 0.0 0.00 0.00 0.00 10 1006.2
20260506144115 60 250 7.0 0.0 0.00 0.00 0.00 10 1006.2
20260506143615 60 230 9.0 0.0 0.00 0.00 0.00 10 1006.1
20260506143115 60 230 9.0 0.0 0.00 0.00 0.00 10 1006.2
20260506142615 60 230 9.0 0.0 0.00 0.00 0.00 10 1006.1
20260506142115 60 230 9.0 0.0 0.00 0.00 0.00 10 1006.1
20260506141615 61 230 9.0 0.0 0.00 0.00 0.00 10 1006.1
20260506141115 62 230 9.0 0.0 0.00 0.00 0.00 10 1006.0
20260506140615 63 240 9.0 0.0 0.00 0.00 0.00 95 1006.0
20260506140115 65 240 9.0 0.0 0.00 0.00 0.00 92 1005.9
20260506135615 63 240 9.0 0.0 0.00 0.00 0.00 96 1005.9
20260506135115 64 240 9.0 0.0 0.00 0.00 0.00 90 1005.8
20260506134615 65 240 9.0 0.0 0.00 0.00 0.00 84 1005.8
20260506134115 64 220 7.0 0.0 0.00 0.00 0.00 85 1005.8
20260506133614 64 220 7.0 0.0 0.00 0.00 0.00 82 1005.8
20260506133115 63 220 7.0 0.0 0.00 0.00 0.00 86 1005.9
20260506132614 64 220 7.0 0.0 0.00 0.00 0.00 86 1005.9
20260506132114 64 220 7.0 0.0 0.00 0.00 0.00 83 1005.8
20260506131614 63 220 7.0 0.0 0.00 0.00 0.00 82 1005.8
20260506131114 63 190 9.0 0.0 0.00 0.00 0.00 80 1005.7
20260506130614 64 190 9.0 0.0 0.00 0.00 0.00 76 1005.6
20260506130114 66 190 9.0 0.0 0.00 0.00 0.00 73 1005.6
20260506125614 65 190 9.0 0.0 0.00 0.00 0.00 74 1005.7
20260506125114 65 190 9.0 0.0 0.00 0.00 0.00 74 1005.7
20260506124614 64 190 9.0 0.0 0.00 0.00 0.00 76 1005.8
20260506124114 64 220 9.0 0.0 0.00 0.00 0.00 77 1005.8
20260506123614 64 220 9.0 0.0 0.00 0.00 0.00 76 1005.8
20260506123114 64 220 9.0 0.0 0.00 0.00 0.00 74 1005.9
20260506122614 65 220 9.0 0.0 0.00 0.00 0.00 73 1005.8
20260506122114 66 220 9.0 0.0 0.00 0.00 0.00 73 1005.7
20260506121614 65 220 9.0 0.0 0.00 0.00 0.00 80 1005.8
20260506121114 63 220 9.0 0.0 0.00 0.00 0.00 81 1005.8
20260506120614 63 210 9.0 0.0 0.00 0.00 0.00 81 1005.8
20260506120114 63 210 9.0 0.0 0.00 0.00 0.00 82 1005.8
20260506115613 64 210 9.0 0.0 0.00 0.00 0.00 80 1005.8
20260506115113 64 210 9.0 0.0 0.00 0.00 0.00 80 1005.8
20260506114613 64 210 9.0 0.0 0.00 0.00 0.00 82 1005.8
20260506114113 64 230 10.0 0.0 0.00 0.00 0.00 80 1005.8
20260506113613 63 230 10.0 0.0 0.00 0.00 0.00 81 1005.7
20260506113113 64 230 10.0 0.0 0.00 0.00 0.00 83 1005.7
20260506112613 64 230 10.0 0.0 0.00 0.00 0.00 83 1005.8
20260506112113 64 230 10.0 0.0 0.00 0.00 0.00 79 1005.8
20260506111613 65 230 10.0 0.0 0.00 0.00 0.00 78 1005.8
20260506111113 65 210 9.0 0.0 0.00 0.00 0.00 74 1005.9
20260506110613 64 210 9.0 0.0 0.00 0.00 0.00 73 1006.0
20260506110113 65 210 9.0 0.0 0.00 0.00 0.00 73 1005.9
20260506105613 64 210 9.0 0.0 0.00 0.00 0.00 75 1005.9
20260506105113 65 210 9.0 0.0 0.00 0.00 0.00 82 1005.9
20260506104613 65 220 9.0 0.0 0.00 0.00 0.00 82 1006.0
20260506104113 64 220 9.0 0.0 0.00 0.00 0.00 85 1006.0
20260506103612 63 220 9.0 0.0 0.00 0.00 0.00 92 1006.1
20260506103112 62 220 9.0 0.0 0.00 0.00 0.00 93 1006.0
20260506102612 62 220 9.0 0.0 0.00 0.00 0.00 97 1006.0
20260506102112 62 220 9.0 0.0 0.00 0.00 0.00 95 1006.1
20260506101612 62 220 9.0 0.0 0.00 0.00 0.00 97 1006.0
20260506101112 62 220 9.0 0.0 0.00 0.00 0.00 98 1006.0
20260506100612 62 220 9.0 0.0 0.00 0.00 0.00 97 1006.0
20260506100112 62 220 9.0 0.0 0.00 0.00 0.00 94 1006.0
20260506095612 62 220 9.0 0.0 0.00 0.00 0.00 94 1006.0
20260506095112 62 220 9.0 0.0 0.00 0.00 0.00 95 1005.9
20260506094612 63 220 9.0 0.0 0.00 0.00 0.00 90 1006.0
20260506094112 62 220 9.0 0.0 0.00 0.00 0.00 96 1005.9
20260506093612 64 200 8.0 0.0 0.00 0.00 0.00 10 1006.0
20260506093112 63 200 8.0 0.0 0.00 0.00 0.00 10 1005.9
20260506092612 62 200 8.0 0.0 0.00 0.00 0.00 10 1006.0
20260506092112 63 200 8.0 0.0 0.00 0.00 0.00 10 1005.9
20260506091612 61 200 8.0 0.0 0.00 0.00 0.00 10 1006.0
20260506091111 61 200 8.0 0.0 0.00 0.00 0.00 10 1006.0
20260506090611 61 210 7.0 0.0 0.00 0.00 0.00 10 1006.1
20260506090111 61 210 7.0 0.0 0.00 0.00 0.00 10 1006.0
20260506085611 61 210 7.0 0.0 0.00 0.00 0.00 10 1006.0
20260506085111 62 210 7.0 0.0 0.00 0.00 0.00 10 1005.9
20260506084611 61 210 7.0 0.0 0.00 0.00 0.00 10 1005.9
20260506084111 61 210 8.0 0.0 0.00 0.00 0.00 10 1005.9
20260506083611 61 210 8.0 0.0 0.00 0.00 0.00 10 1005.9
20260506083111 61 210 8.0 0.0 0.00 0.00 0.00 10 1005.8
20260506082611 62 210 8.0 0.0 0.00 0.00 0.00 10 1005.8
20260506082111 61 210 8.0 0.0 0.00 0.00 0.00 10 1005.9
20260506081611 61 210 8.0 0.0 0.00 0.00 0.00 10 1005.8
20260506081111 61 210 8.0 0.0 0.00 0.00 0.00 10 1005.7
20260506080611 61 210 8.0 0.0 0.00 0.00 0.00 10 1005.7
20260506080111 61 210 8.0 0.0 0.00 0.00 0.00 10 1005.7
20260506073110 60 200 7.0 0.0 0.00 0.00 0.00 10 1005.8
20260506072610 61 200 7.0 0.0 0.00 0.00 0.00 10 1005.8
20260506072110 60 200 7.0 0.0 0.00 0.00 0.00 10 1005.8
20260506071609 60 200 7.0 0.0 0.00 0.00 0.00 10 1005.8
20260506071109 361 200 7.0 0.0 0.00 0.00 0.00 10 1005.7
20260506070609 361 190 6.0 0.0 0.00 0.00 0.00 10 1283.7
20260506070109 60 190 6.0 0.0 0.00 0.00 0.00 10 1005.7
20260506062109 58 190 6.0 0.0 0.00 0.00 0.00 10 1005.7
20260506061609 58 190 6.0 0.0 0.00 0.00 0.00 10 1005.7
20260506061109 58 180 4.0 0.0 0.00 0.00 0.00 10 1005.7
20260506060608 58 180 4.0 0.0 0.00 0.00 0.00 10 1005.7
20260506060108 57 180 4.0 0.0 0.00 0.00 0.00 10 1005.6
20260506051108 57 200 4.0 0.0 0.00 0.00 0.00 10 1005.6
20260506050608 56 200 5.0 0.0 0.00 0.00 0.00 10 1005.6
20260506050108 57 200 5.0 0.0 0.00 0.00 0.00 10 1005.7
20260506045108 57 200 5.0 0.0 0.00 0.00 0.00 10 1005.7
20260506044608 57 200 5.0 0.0 0.00 0.00 0.00 10 1005.7
20260506044108 58 190 5.0 0.0 0.00 0.00 0.00 10 1005.7
20260506043607 57 190 5.0 0.0 0.00 0.00 0.00 10 1005.7
20260506043107 57 190 5.0 0.0 0.00 0.00 0.00 10 1005.7
20260506042607 57 190 5.0 0.0 0.00 0.00 0.00 10 1005.8
20260506042107 57 190 5.0 0.0 0.00 0.00 0.00 10 1005.8
20260506041607 57 190 5.0 0.0 0.00 0.00 0.00 10 1005.7
20260506041107 56 190 4.0 0.0 0.00 0.00 0.00 10 1005.7